| time (UTC) | temp C | wind direction | speed KPH | gust KPH | rain 1hr cm | rain 24hr cm | rain mn cm | humidity % | barometer mb |
| 20260906125519 | 22 | 322 | 0.0 | 3.2 | 0.00 | 0.00 | 0.00 | 91 | 1015.9 |
| 20260906125013 | 22 | 287 | 0.0 | 3.2 | 0.00 | 0.00 | 0.00 | 91 | 1016.0 |
| 20260906124509 | 22 | 268 | 0.0 | 3.2 | 0.00 | 0.00 | 0.00 | 91 | 1016.0 |
| 20260906124003 | 22 | 274 | 3.2 | 4.8 | 0.00 | 0.00 | 0.00 | 90 | 1016.1 |
| 20260906123456 | 22 | 299 | 0.0 | 3.2 | 0.00 | 0.00 | 0.00 | 90 | 1016.1 |
| 20260906122951 | 22 | 300 | 0.0 | 6.4 | 0.00 | 0.00 | 0.00 | 89 | 1015.9 |
| 20260906122446 | 22 | 330 | 0.0 | 3.2 | 0.00 | 0.00 | 0.00 | 89 | 1015.9 |
| 20260906121942 | 22 | 314 | 0.0 | 3.2 | 0.00 | 0.00 | 0.00 | 88 | 1015.6 |
| 20260906121438 | 23 | 302 | 0.0 | 3.2 | 0.00 | 0.00 | 0.00 | 88 | 1015.6 |
| 20260906120935 | 22 | 337 | 0.0 | 1.6 | 0.00 | 0.00 | 0.00 | 90 | 1015.4 |
| 20260906120430 | 22 | 254 | 0.0 | 3.2 | 0.00 | 0.00 | 0.00 | 91 | 1015.4 |
| 20260906115925 | 21 | 35 | 3.2 | 4.8 | 0.00 | 0.00 | 0.00 | 92 | 1015.5 |
| 20260906115421 | 21 | 8 | 1.6 | 3.2 | 0.00 | 0.00 | 0.00 | 94 | 1015.2 |
| 20260906114915 | 21 | 328 | 1.6 | 1.6 | 0.00 | 0.00 | 0.00 | 95 | 1015.3 |
| 20260906114410 | 21 | 327 | 0.0 | 1.6 | 0.00 | 0.00 | 0.00 | 95 | 1015.2 |
| 20260906113906 | 21 | 279 | 0.0 | 1.6 | 0.00 | 0.00 | 0.00 | 95 | 1015.2 |
| 20260906113404 | 21 | 339 | 3.2 | 3.2 | 0.00 | 0.00 | 0.00 | 96 | 1015.0 |
| 20260906112900 | 21 | 281 | 1.6 | 1.6 | 0.00 | 0.00 | 0.00 | 96 | 1014.9 |
| 20260906112355 | 21 | 305 | 0.0 | 1.6 | 0.00 | 0.00 | 0.00 | 96 | 1014.9 |
| 20260906111850 | 21 | 38 | 0.0 | 1.6 | 0.00 | 0.00 | 0.00 | 97 | 1014.9 |
| 20260906111349 | 21 | 337 | 0.0 | 0.0 | 0.00 | 0.00 | 0.00 | 97 | 1015.1 |
| 20260906110844 | 21 | 0 | 1.6 | 1.6 | 0.00 | 0.00 | 0.00 | 97 | 1014.8 |
| 20260906110340 | 21 | 285 | 0.0 | 0.0 | 0.00 | 0.00 | 0.00 | 98 | 1014.7 |
| 20260906105839 | 21 | 266 | 0.0 | 0.0 | 0.00 | 0.00 | 0.00 | 98 | 1014.7 |
| 20260906105335 | 21 | 274 | 0.0 | 0.0 | 0.00 | 0.00 | 0.00 | 98 | 1014.7 |
| 20260906104831 | 21 | 269 | 0.0 | 0.0 | 0.00 | 0.00 | 0.00 | 98 | 1014.6 |
| 20260906104329 | 21 | 297 | 1.6 | 1.6 | 0.00 | 0.00 | 0.00 | 98 | 1014.7 |
| 20260906103828 | 21 | 288 | 0.0 | 0.0 | 0.00 | 0.00 | 0.00 | 98 | 1014.4 |
| 20260906103326 | 21 | 278 | 0.0 | 0.0 | 0.00 | 0.00 | 0.00 | 98 | 1014.4 |
| 20260906102823 | 21 | 280 | 0.0 | 0.0 | 0.00 | 0.00 | 0.00 | 98 | 1014.3 |
| 20260906102321 | 21 | 265 | 0.0 | 0.0 | 0.00 | 0.00 | 0.00 | 98 | 1014.2 |
| 20260906101817 | 21 | 335 | 1.6 | 4.8 | 0.00 | 0.00 | 0.00 | 99 | 1014.2 |
| 20260906101312 | 21 | 326 | 0.0 | 1.6 | 0.00 | 0.00 | 0.00 | 99 | 1013.9 |
| 20260906100808 | 21 | 279 | 0.0 | 0.0 | 0.00 | 0.00 | 0.00 | 99 | 1013.9 |
| 20260906100306 | 21 | 284 | 0.0 | 0.0 | 0.00 | 0.00 | 0.00 | 99 | 1014.2 |
| 20260906095802 | 21 | 314 | 0.0 | 3.2 | 0.00 | 0.00 | 0.00 | 99 | 1013.8 |
| 20260906095257 | 21 | 279 | 0.0 | 0.0 | 0.00 | 0.00 | 0.00 | 99 | 1013.8 |
| 20260906094756 | 21 | 301 | 0.0 | 0.0 | 0.00 | 0.00 | 0.00 | 99 | 1014.0 |
| 20260906094251 | 21 | 277 | 0.0 | 0.0 | 0.00 | 0.00 | 0.00 | 99 | 1013.8 |
| 20260906093748 | 21 | 277 | 0.0 | 0.0 | 0.00 | 0.00 | 0.00 | 99 | 1013.9 |
| 20260906093243 | 21 | 276 | 0.0 | 0.0 | 0.00 | 0.00 | 0.00 | 99 | 1013.8 |
| 20260906092738 | 21 | 326 | 0.0 | 0.0 | 0.00 | 0.00 | 0.00 | 99 | 1013.8 |
| 20260906092238 | 21 | 284 | 0.0 | 0.0 | 0.00 | 0.00 | 0.00 | 99 | 1013.7 |
| 20260906091733 | 21 | 310 | 0.0 | 0.0 | 0.00 | 0.00 | 0.00 | 99 | 1013.8 |
| 20260906091230 | 21 | 301 | 0.0 | 0.0 | 0.00 | 0.00 | 0.00 | 99 | 1013.7 |
| 20260906090726 | 21 | 286 | 0.0 | 0.0 | 0.00 | 0.00 | 0.00 | 99 | 1013.7 |
| 20260906090225 | 21 | 281 | 0.0 | 0.0 | 0.00 | 0.00 | 0.00 | 99 | 1013.7 |
| 20260906085724 | 21 | 289 | 0.0 | 0.0 | 0.00 | 0.00 | 0.00 | 99 | 1013.6 |
| 20260906085223 | 21 | 273 | 0.0 | 0.0 | 0.00 | 0.00 | 0.00 | 99 | 1013.5 |
| 20260906084718 | 21 | 273 | 0.0 | 0.0 | 0.00 | 0.00 | 0.00 | 99 | 1013.3 |
| 20260906084212 | 21 | 273 | 0.0 | 0.0 | 0.00 | 0.00 | 0.00 | 99 | 1013.4 |
| 20260906083708 | 21 | 265 | 0.0 | 0.0 | 0.00 | 0.00 | 0.00 | 99 | 1013.4 |
| 20260906083158 | 21 | 274 | 0.0 | 0.0 | 0.00 | 0.00 | 0.00 | 99 | 1013.6 |
| 20260906082652 | 21 | 321 | 0.0 | 0.0 | 0.00 | 0.00 | 0.00 | 99 | 1013.5 |
| 20260906082148 | 21 | 300 | 0.0 | 0.0 | 0.00 | 0.00 | 0.00 | 99 | 1013.4 |
| 20260906081643 | 21 | 288 | 0.0 | 0.0 | 0.00 | 0.00 | 0.00 | 99 | 1013.3 |
| 20260906081138 | 21 | 339 | 1.6 | 3.2 | 0.00 | 0.00 | 0.00 | 99 | 1013.3 |
| 20260906080635 | 21 | 280 | 0.0 | 0.0 | 0.00 | 0.00 | 0.00 | 99 | 1013.4 |
| 20260906080131 | 21 | 288 | 0.0 | 1.6 | 0.00 | 0.00 | 0.00 | 99 | 1013.4 |
| 20260906075630 | 21 | 315 | 0.0 | 0.0 | 0.00 | 0.00 | 0.00 | 99 | 1013.4 |
| 20260906075125 | 21 | 331 | 1.6 | 3.2 | 0.00 | 0.00 | 0.00 | 99 | 1013.3 |
| 20260906074621 | 21 | 277 | 0.0 | 0.0 | 0.00 | 0.00 | 0.00 | 99 | 1013.3 |
| 20260906074119 | 21 | 281 | 0.0 | 0.0 | 0.00 | 0.00 | 0.00 | 99 | 1013.2 |
| 20260906073614 | 21 | 285 | 0.0 | 0.0 | 0.00 | 0.00 | 0.00 | 99 | 1013.0 |
| 20260906073110 | 21 | 264 | 0.0 | 0.0 | 0.00 | 0.00 | 0.00 | 99 | 1013.2 |
| 20260906072605 | 21 | 264 | 0.0 | 0.0 | 0.00 | 0.00 | 0.00 | 99 | 1013.2 |
| 20260906072101 | 21 | 265 | 0.0 | 0.0 | 0.00 | 0.00 | 0.00 | 99 | 1013.0 |
| 20260906071557 | 21 | 274 | 0.0 | 0.0 | 0.00 | 0.00 | 0.00 | 99 | 1012.9 |
| 20260906071051 | 21 | 290 | 0.0 | 0.0 | 0.00 | 0.00 | 0.00 | 99 | 1012.9 |
| 20260906070548 | 21 | 272 | 0.0 | 0.0 | 0.00 | 0.00 | 0.00 | 99 | 1013.0 |
| 20260906070043 | 21 | 310 | 0.0 | 0.0 | 0.00 | 0.00 | 0.00 | 99 | 1013.2 |
| 20260906065542 | 22 | 276 | 0.0 | 0.0 | 0.00 | 0.00 | 0.00 | 99 | 1012.8 |
| 20260906065039 | 22 | 278 | 0.0 | 0.0 | 0.00 | 0.00 | 0.00 | 99 | 1012.9 |
| 20260906064534 | 22 | 257 | 0.0 | 1.6 | 0.00 | 0.00 | 0.00 | 99 | 1013.0 |
| 20260906064029 | 22 | 280 | 0.0 | 0.0 | 0.00 | 0.00 | 0.00 | 99 | 1013.0 |
| 20260906063524 | 22 | 269 | 0.0 | 0.0 | 0.00 | 0.00 | 0.00 | 99 | 1013.0 |
| 20260906063020 | 21 | 287 | 0.0 | 1.6 | 0.00 | 0.00 | 0.00 | 99 | 1013.1 |
| 20260906062509 | 21 | 276 | 0.0 | 0.0 | 0.00 | 0.00 | 0.00 | 99 | 1013.2 |
| 20260906062004 | 21 | 277 | 0.0 | 0.0 | 0.00 | 0.00 | 0.00 | 99 | 1012.9 |
| 20260906061500 | 21 | 283 | 0.0 | 0.0 | 0.00 | 0.00 | 0.00 | 99 | 1013.2 |
| 20260906060954 | 21 | 291 | 0.0 | 0.0 | 0.00 | 0.00 | 0.00 | 99 | 1013.1 |
| 20260906060451 | 21 | 277 | 0.0 | 1.6 | 0.00 | 0.00 | 0.00 | 99 | 1013.2 |
| 20260906055947 | 21 | 286 | 0.0 | 0.0 | 0.00 | 0.00 | 0.00 | 99 | 1013.2 |
| 20260906055443 | 21 | 289 | 0.0 | 0.0 | 0.00 | 0.00 | 0.00 | 99 | 1013.2 |
| 20260906054938 | 21 | 281 | 0.0 | 0.0 | 0.00 | 0.00 | 0.00 | 99 | 1013.5 |
| 20260906054433 | 22 | 279 | 0.0 | 0.0 | 0.00 | 0.00 | 0.00 | 99 | 1013.4 |
| 20260906053928 | 22 | 294 | 0.0 | 0.0 | 0.00 | 0.00 | 0.00 | 99 | 1013.3 |
| 20260906053424 | 22 | 296 | 0.0 | 0.0 | 0.00 | 0.00 | 0.00 | 99 | 1013.4 |
| 20260906052920 | 22 | 274 | 0.0 | 0.0 | 0.00 | 0.00 | 0.00 | 99 | 1013.3 |
| 20260906052416 | 22 | 267 | 0.0 | 0.0 | 0.00 | 0.00 | 0.00 | 99 | 1013.5 |
| 20260906051913 | 22 | 276 | 0.0 | 0.0 | 0.00 | 0.00 | 0.00 | 99 | 1013.5 |
| 20260906051413 | 22 | 303 | 0.0 | 0.0 | 0.00 | 0.00 | 0.00 | 99 | 1013.4 |
| 20260906050908 | 22 | 344 | 0.0 | 1.6 | 0.00 | 0.00 | 0.00 | 99 | 1013.4 |
| 20260906050403 | 22 | 340 | 0.0 | 0.0 | 0.00 | 0.00 | 0.00 | 99 | 1013.5 |
| 20260906045902 | 22 | 10 | 0.0 | 1.6 | 0.00 | 0.00 | 0.00 | 99 | 1013.6 |
| 20260906045401 | 21 | 294 | 0.0 | 3.2 | 0.00 | 0.00 | 0.00 | 99 | 1013.6 |
| 20260906044857 | 21 | 288 | 0.0 | 0.0 | 0.00 | 0.00 | 0.00 | 99 | 1013.6 |
| 20260906044351 | 21 | 283 | 0.0 | 0.0 | 0.00 | 0.00 | 0.00 | 99 | 1013.7 |
| 20260906043847 | 21 | 277 | 0.0 | 0.0 | 0.00 | 0.00 | 0.00 | 99 | 1013.7 |
| 20260906043343 | 21 | 283 | 0.0 | 3.2 | 0.00 | 0.00 | 0.00 | 99 | 1013.6 |
| 20260906042838 | 21 | 278 | 0.0 | 0.0 | 0.00 | 0.00 | 0.00 | 99 | 1013.8 |
| 20260906042337 | 21 | 278 | 0.0 | 0.0 | 0.00 | 0.00 | 0.00 | 99 | 1013.8 |
| 20260906041832 | 21 | 269 | 0.0 | 0.0 | 0.00 | 0.00 | 0.00 | 99 | 1013.8 |
| 20260906041329 | 21 | 279 | 0.0 | 0.0 | 0.00 | 0.00 | 0.00 | 99 | 1013.5 |
| 20260906040828 | 21 | 276 | 0.0 | 0.0 | 0.00 | 0.00 | 0.00 | 99 | 1013.3 |
| 20260906040323 | 21 | 276 | 0.0 | 0.0 | 0.00 | 0.00 | 0.00 | 99 | 1013.6 |
| 20260906035819 | 21 | 267 | 0.0 | 0.0 | 0.00 | 1.07 | 1.07 | 99 | 1013.7 |
| 20260906035314 | 21 | 266 | 0.0 | 0.0 | 0.00 | 1.07 | 1.07 | 99 | 1013.8 |
| 20260906034809 | 21 | 267 | 0.0 | 0.0 | 0.00 | 1.07 | 1.07 | 99 | 1013.7 |
| 20260906034309 | 21 | 264 | 0.0 | 0.0 | 0.00 | 1.07 | 1.07 | 99 | 1013.7 |
| 20260906033805 | 21 | 264 | 0.0 | 0.0 | 0.00 | 1.07 | 1.07 | 99 | 1013.9 |
| 20260906033304 | 21 | 274 | 0.0 | 0.0 | 0.00 | 1.07 | 1.07 | 99 | 1013.7 |
| 20260906032801 | 21 | 272 | 0.0 | 0.0 | 0.00 | 1.07 | 1.07 | 99 | 1013.8 |
| 20260906032256 | 21 | 270 | 0.0 | 0.0 | 0.00 | 1.07 | 1.07 | 99 | 1013.9 |
| 20260906031751 | 21 | 279 | 0.0 | 0.0 | 0.00 | 1.07 | 1.07 | 99 | 1013.8 |
| 20260906031247 | 21 | 286 | 0.0 | 0.0 | 0.00 | 1.07 | 1.07 | 99 | 1013.8 |
| 20260906030746 | 21 | 275 | 0.0 | 0.0 | 0.00 | 1.07 | 1.07 | 99 | 1013.7 |
| 20260906030242 | 21 | 258 | 0.0 | 0.0 | 0.00 | 1.07 | 1.07 | 99 | 1013.9 |
| 20260906025741 | 22 | 259 | 0.0 | 0.0 | 0.00 | 1.07 | 1.07 | 99 | 1013.9 |
| 20260906025235 | 21 | 264 | 0.0 | 0.0 | 0.00 | 1.07 | 1.07 | 99 | 1013.9 |
| 20260906024734 | 22 | 264 | 0.0 | 0.0 | 0.00 | 1.07 | 1.07 | 99 | 1013.7 |
| 20260906024234 | 22 | 274 | 0.0 | 0.0 | 0.00 | 1.07 | 1.07 | 99 | 1013.7 |
| 20260906023730 | 22 | 272 | 0.0 | 0.0 | 0.00 | 1.07 | 1.07 | 99 | 1013.7 |
| 20260906023225 | 22 | 271 | 0.0 | 0.0 | 0.00 | 1.07 | 1.07 | 99 | 1013.7 |
| 20260906022721 | 22 | 277 | 0.0 | 0.0 | 0.00 | 1.07 | 1.07 | 99 | 1013.6 |
| 20260906022216 | 22 | 279 | 0.0 | 0.0 | 0.00 | 1.07 | 1.07 | 99 | 1013.7 |
| 20260906021712 | 22 | 275 | 0.0 | 0.0 | 0.00 | 1.07 | 1.07 | 99 | 1013.8 |
| 20260906021210 | 22 | 275 | 0.0 | 0.0 | 0.00 | 1.07 | 1.07 | 99 | 1013.6 |
| 20260906020705 | 22 | 275 | 0.0 | 0.0 | 0.00 | 1.07 | 1.07 | 99 | 1013.8 |
| 20260906020159 | 22 | 276 | 0.0 | 0.0 | 0.00 | 1.07 | 1.07 | 99 | 1013.8 |
| 20260906015654 | 22 | 276 | 0.0 | 0.0 | 0.00 | 1.07 | 1.07 | 98 | 1013.7 |
| 20260906015152 | 22 | 276 | 0.0 | 0.0 | 0.00 | 1.07 | 1.07 | 98 | 1013.6 |
| 20260906014647 | 22 | 277 | 0.0 | 0.0 | 0.00 | 1.07 | 1.07 | 98 | 1013.4 |
| 20260906014143 | 22 | 276 | 0.0 | 0.0 | 0.00 | 1.07 | 1.07 | 98 | 1013.5 |
| 20260906013638 | 23 | 276 | 0.0 | 0.0 | 0.00 | 1.07 | 1.07 | 98 | 1013.4 |
| 20260906013134 | 23 | 276 | 0.0 | 0.0 | 0.00 | 1.07 | 1.07 | 98 | 1013.3 |
| 20260906012628 | 23 | 276 | 0.0 | 0.0 | 0.00 | 1.07 | 1.07 | 98 | 1013.4 |
| 20260906012123 | 23 | 277 | 0.0 | 0.0 | 0.00 | 1.07 | 1.07 | 97 | 1013.1 |
| 20260906011618 | 23 | 277 | 0.0 | 0.0 | 0.00 | 1.07 | 1.07 | 97 | 1013.4 |
| 20260906011113 | 23 | 277 | 0.0 | 0.0 | 0.00 | 1.07 | 1.07 | 97 | 1013.3 |
| 20260906010608 | 23 | 296 | 0.0 | 0.0 | 0.00 | 1.07 | 1.07 | 97 | 1013.2 |
| 20260906010104 | 23 | 260 | 0.0 | 0.0 | 0.00 | 1.07 | 1.07 | 96 | 1013.1 |
| 20260906005603 | 23 | 262 | 0.0 | 0.0 | 0.00 | 1.07 | 1.07 | 96 | 1013.0 |
| 20260906005102 | 23 | 262 | 0.0 | 0.0 | 0.00 | 1.07 | 1.07 | 96 | 1012.9 |
| 20260906004556 | 23 | 260 | 0.0 | 0.0 | 0.00 | 1.07 | 1.07 | 96 | 1012.8 |
| 20260906004052 | 23 | 259 | 0.0 | 0.0 | 0.00 | 1.07 | 1.07 | 96 | 1012.7 |
| 20260906003547 | 23 | 272 | 0.0 | 0.0 | 0.00 | 1.07 | 1.07 | 96 | 1012.8 |
| 20260906003043 | 23 | 272 | 0.0 | 0.0 | 0.00 | 1.07 | 1.07 | 96 | 1012.7 |
| 20260906002543 | 23 | 256 | 0.0 | 0.0 | 0.00 | 1.07 | 1.07 | 96 | 1012.4 |
| 20260906002037 | 23 | 270 | 0.0 | 0.0 | 0.00 | 1.07 | 1.07 | 96 | 1012.5 |
| 20260906001533 | 23 | 280 | 0.0 | 0.0 | 0.00 | 1.07 | 1.07 | 95 | 1012.7 |
| 20260906001027 | 23 | 277 | 0.0 | 0.0 | 0.00 | 1.07 | 1.07 | 95 | 1012.4 |
| 20260906000524 | 23 | 271 | 0.0 | 0.0 | 0.00 | 1.07 | 1.07 | 94 | 1012.4 |
| 20260906000018 | 23 | 270 | 0.0 | 0.0 | 0.00 | 1.07 | 1.07 | 94 | 1012.2 |
| 20260905235512 | 23 | 259 | 0.0 | 0.0 | 0.00 | 1.07 | 1.07 | 93 | 1012.0 |
| 20260905235007 | 23 | 258 | 0.0 | 0.0 | 0.00 | 1.07 | 1.07 | 94 | 1012.1 |
| 20260905234502 | 23 | 262 | 0.0 | 0.0 | 0.00 | 1.07 | 1.07 | 92 | 1012.1 |
| 20260905233956 | 23 | 265 | 0.0 | 0.0 | 0.00 | 1.07 | 1.07 | 92 | 1012.0 |
| 20260905233452 | 24 | 277 | 0.0 | 0.0 | 0.00 | 1.07 | 1.07 | 91 | 1012.0 |
| 20260905232950 | 24 | 296 | 0.0 | 0.0 | 0.00 | 1.07 | 1.07 | 91 | 1011.9 |
| 20260905232447 | 24 | 273 | 0.0 | 0.0 | 0.00 | 1.07 | 1.07 | 91 | 1011.8 |
| 20260905231943 | 24 | 343 | 0.0 | 0.0 | 0.00 | 1.07 | 1.07 | 90 | 1012.0 |
| 20260905231438 | 24 | 302 | 0.0 | 0.0 | 0.00 | 1.07 | 1.07 | 90 | 1012.1 |
| 20260905230934 | 25 | 273 | 0.0 | 0.0 | 0.00 | 1.07 | 1.07 | 90 | 1012.2 |
| 20260905230433 | 25 | 309 | 0.0 | 0.0 | 0.00 | 1.07 | 1.07 | 89 | 1012.1 |
| 20260905225931 | 25 | 262 | 0.0 | 0.0 | 0.00 | 1.07 | 1.07 | 88 | 1012.4 |
| 20260905225427 | 25 | 274 | 0.0 | 1.6 | 0.00 | 1.07 | 1.07 | 88 | 1012.3 |
| 20260905224921 | 25 | 5 | 0.0 | 1.6 | 0.00 | 1.07 | 1.07 | 87 | 1012.3 |
| 20260905224418 | 25 | 290 | 1.6 | 3.2 | 0.00 | 1.07 | 1.07 | 87 | 1012.4 |
| 20260905223917 | 25 | 288 | 0.0 | 0.0 | 0.00 | 1.07 | 1.07 | 88 | 1012.2 |
| 20260905223415 | 25 | 312 | 1.6 | 3.2 | 0.00 | 1.07 | 1.07 | 88 | 1012.1 |
| 20260905222915 | 25 | 308 | 0.0 | 1.6 | 0.00 | 1.07 | 1.07 | 89 | 1012.4 |
| 20260905222414 | 25 | 254 | 0.0 | 0.0 | 0.00 | 1.07 | 1.07 | 89 | 1012.3 |
| 20260905221910 | 25 | 273 | 0.0 | 0.0 | 0.00 | 1.07 | 1.07 | 88 | 1012.0 |
| 20260905221406 | 25 | 296 | 0.0 | 0.0 | 0.00 | 1.07 | 1.07 | 88 | 1012.1 |
| 20260905220856 | 25 | 290 | 0.0 | 1.6 | 0.00 | 1.07 | 1.07 | 87 | 1012.2 |
| 20260905220352 | 26 | 256 | 0.0 | 0.0 | 0.00 | 1.07 | 1.07 | 87 | 1012.1 |
| 20260905215852 | 26 | 273 | 0.0 | 1.6 | 0.00 | 1.07 | 1.07 | 86 | 1011.9 |
| 20260905215348 | 26 | 263 | 0.0 | 0.0 | 0.00 | 1.07 | 1.07 | 84 | 1011.8 |
| 20260905214844 | 26 | 263 | 0.0 | 0.0 | 0.00 | 1.07 | 1.07 | 84 | 1011.9 |
| 20260905214339 | 26 | 260 | 0.0 | 0.0 | 0.00 | 1.07 | 1.07 | 85 | 1012.2 |
| 20260905213833 | 26 | 271 | 0.0 | 1.6 | 0.00 | 1.07 | 1.07 | 87 | 1012.2 |
| 20260905213330 | 25 | 286 | 0.0 | 0.0 | 0.00 | 1.07 | 1.07 | 88 | 1012.1 |
| 20260905212825 | 25 | 308 | 0.0 | 0.0 | 0.00 | 1.07 | 1.07 | 89 | 1012.2 |
| 20260905212324 | 25 | 321 | 1.6 | 1.6 | 0.00 | 1.07 | 1.07 | 89 | 1012.1 |
| 20260905211819 | 25 | 108 | 0.0 | 3.2 | 0.00 | 1.07 | 1.07 | 88 | 1012.1 |
| 20260905211314 | 25 | 220 | 0.0 | 1.6 | 0.00 | 1.07 | 1.07 | 89 | 1012.2 |
| 20260905210811 | 24 | 317 | 1.6 | 4.8 | 0.00 | 1.07 | 1.07 | 96 | 1012.5 |
| 20260905210310 | 23 | 298 | 0.0 | 1.6 | 0.00 | 1.07 | 1.07 | 99 | 1012.3 |
| 20260905205809 | 23 | 247 | 0.0 | 1.6 | 0.00 | 1.07 | 1.07 | 99 | 1012.3 |
| 20260905205306 | 23 | 253 | 0.0 | 0.0 | 0.00 | 1.07 | 1.07 | 99 | 1012.5 |
| 20260905204803 | 23 | 276 | 1.6 | 1.6 | 0.00 | 1.07 | 1.07 | 99 | 1012.4 |
| 20260905204300 | 23 | 288 | 0.0 | 1.6 | 0.00 | 1.07 | 1.07 | 99 | 1012.3 |
| 20260905203758 | 23 | 278 | 0.0 | 0.0 | 0.00 | 1.07 | 1.07 | 99 | 1012.5 |
| 20260905203254 | 22 | 258 | 0.0 | 0.0 | 0.00 | 1.07 | 1.07 | 99 | 1012.3 |
| 20260905202750 | 22 | 251 | 0.0 | 0.0 | 0.00 | 1.07 | 1.07 | 99 | 1012.2 |
| 20260905202244 | 22 | 249 | 0.0 | 1.6 | 0.00 | 1.07 | 1.07 | 99 | 1012.0 |
| 20260905201740 | 23 | 230 | 0.0 | 1.6 | 0.00 | 1.07 | 1.07 | 99 | 1012.2 |
| 20260905201235 | 22 | 228 | 0.0 | 1.6 | 0.00 | 1.07 | 1.07 | 99 | 1012.0 |
| 20260905200730 | 23 | 237 | 0.0 | 0.0 | 0.00 | 1.07 | 1.07 | 99 | 1011.8 |
| 20260905200226 | 22 | 250 | 0.0 | 0.0 | 0.00 | 1.07 | 1.07 | 99 | 1012.2 |
| 20260905195218 | 22 | 284 | 0.0 | 0.0 | 0.00 | 1.07 | 1.07 | 99 | 1012.3 |
| 20260905194714 | 22 | 286 | 0.0 | 0.0 | 0.00 | 1.07 | 1.07 | 99 | 1012.4 |
| 20260905194214 | 23 | 255 | 0.0 | 0.0 | 0.00 | 1.07 | 1.07 | 99 | 1012.7 |
| 20260905193708 | 23 | 260 | 0.0 | 0.0 | 0.00 | 1.07 | 1.07 | 99 | 1012.7 |
| 20260905193203 | 22 | 272 | 0.0 | 0.0 | 0.00 | 1.07 | 1.07 | 99 | 1012.7 |
| 20260905192659 | 22 | 256 | 0.0 | 3.2 | 0.13 | 1.07 | 1.07 | 99 | 1012.6 |
| 20260905192155 | 22 | 279 | 0.0 | 1.6 | 0.13 | 1.07 | 1.07 | 99 | 1012.7 |
| 20260905191654 | 23 | 263 | 0.0 | 1.6 | 0.00 | 1.04 | 1.04 | 99 | 1012.7 |
| 20260905191152 | 23 | 269 | 0.0 | 0.0 | 0.00 | 1.04 | 1.04 | 99 | 1013.0 |
| 20260905190651 | 22 | 264 | 0.0 | 1.6 | 0.00 | 1.04 | 1.04 | 99 | 1013.1 |
| 20260905190149 | 22 | 243 | 1.6 | 1.6 | 0.18 | 1.04 | 1.04 | 99 | 1013.2 |
| 20260905185649 | 23 | 264 | 0.0 | 0.0 | 0.18 | 1.04 | 1.04 | 99 | 1013.1 |
| 20260905185143 | 23 | 264 | 0.0 | 0.0 | 0.00 | 1.02 | 1.02 | 99 | 1012.9 |
| 20260905184638 | 23 | 259 | 0.0 | 0.0 | 0.00 | 1.02 | 1.02 | 99 | 1012.9 |
| 20260905184137 | 22 | 263 | 0.0 | 0.0 | 0.00 | 1.02 | 1.02 | 99 | 1012.9 |
| 20260905183636 | 22 | 263 | 0.0 | 0.0 | 0.00 | 1.02 | 1.02 | 99 | 1013.1 |
| 20260905183132 | 22 | 250 | 0.0 | 0.0 | 0.00 | 1.02 | 1.02 | 99 | 1012.8 |
| 20260905182631 | 22 | 235 | 0.0 | 1.6 | 0.00 | 1.02 | 1.02 | 99 | 1012.5 |
| 20260905182131 | 23 | 168 | 1.6 | 1.6 | 0.00 | 1.02 | 1.02 | 99 | 1012.6 |
| 20260905181626 | 23 | 260 | 0.0 | 1.6 | 0.00 | 1.02 | 1.02 | 99 | 1012.8 |
| 20260905181125 | 23 | 226 | 0.0 | 3.2 | 0.00 | 1.02 | 1.02 | 99 | 1012.9 |
| 20260905180620 | 22 | 223 | 0.0 | 1.6 | 0.00 | 1.02 | 1.02 | 99 | 1013.1 |
| 20260905180115 | 22 | 235 | 0.0 | 3.2 | 0.00 | 1.02 | 1.02 | 99 | 1013.1 |
| 20260905175614 | 23 | 237 | 0.0 | 1.6 | 0.00 | 1.02 | 1.02 | 99 | 1013.3 |
| 20260905175109 | 22 | 297 | 1.6 | 1.6 | 0.00 | 1.02 | 1.02 | 99 | 1013.7 |
| 20260905174605 | 23 | 301 | 1.6 | 3.2 | 0.00 | 1.02 | 1.02 | 99 | 1013.7 |
| 20260905174101 | 22 | 185 | 0.0 | 4.8 | 0.00 | 1.02 | 1.02 | 99 | 1013.6 |
| 20260905173557 | 22 | 270 | 0.0 | 4.8 | 0.00 | 1.02 | 1.02 | 99 | 1013.3 |
| 20260905173052 | 22 | 256 | 0.0 | 1.6 | 0.00 | 1.02 | 1.02 | 99 | 1013.6 |
| 20260905172551 | 22 | 284 | 0.0 | 1.6 | 0.00 | 1.02 | 1.02 | 99 | 1013.7 |
| 20260905172047 | 22 | 206 | 1.6 | 3.2 | 0.13 | 1.02 | 1.02 | 99 | 1013.6 |
| 20260905171543 | 22 | 224 | 0.0 | 0.0 | 0.30 | 1.02 | 1.02 | 99 | 1013.9 |
| 20260905171038 | 22 | 265 | 4.8 | 9.7 | 0.79 | 0.99 | 0.99 | 99 | 1014.2 |
| 20260905170535 | 23 | 204 | 1.6 | 3.2 | 1.19 | 0.97 | 0.97 | 99 | 1014.6 |
| 20260905170030 | 23 | 9 | 3.2 | 4.8 | 1.68 | 0.84 | 0.84 | 99 | 1015.0 |
| 20260905165524 | 23 | 250 | 1.6 | 3.2 | 3.00 | 0.74 | 0.74 | 99 | 1014.7 |
| 20260905165020 | 24 | 260 | 0.0 | 4.8 | 2.77 | 0.56 | 0.56 | 98 | 1014.8 |
| 20260905164514 | 25 | 256 | 0.0 | 0.0 | 1.27 | 0.23 | 0.23 | 97 | 1014.5 |
| 20260905164009 | 25 | 247 | 0.0 | 1.6 | 0.61 | 0.10 | 0.10 | 93 | 1014.1 |
| 20260905163505 | 26 | 239 | 0.0 | 0.0 | 0.13 | 0.03 | 0.03 | 88 | 1014.0 |
| 20260905163000 | 26 | 249 | 1.6 | 4.8 | 0.00 | 0.00 | 0.00 | 85 | 1014.3 |
| 20260905162456 | 27 | 327 | 0.0 | 0.0 | 0.00 | 0.00 | 0.00 | 84 | 1013.9 |
| 20260905161951 | 27 | 294 | 1.6 | 1.6 | 0.00 | 0.00 | 0.00 | 82 | 1013.7 |
| 20260905161450 | 27 | 321 | 3.2 | 3.2 | 0.00 | 0.00 | 0.00 | 81 | 1013.9 |
| 20260905160948 | 28 | 268 | 1.6 | 6.4 | 0.00 | 0.00 | 0.00 | 79 | 1013.7 |
| 20260905160442 | 28 | 259 | 0.0 | 3.2 | 0.00 | 0.00 | 0.00 | 77 | 1013.6 |
| 20260905155942 | 28 | 294 | 4.8 | 6.4 | 0.00 | 0.00 | 0.00 | 77 | 1013.5 |
| 20260905155437 | 28 | 291 | 4.8 | 4.8 | 0.00 | 0.00 | 0.00 | 77 | 1013.4 |
| 20260905154935 | 28 | 307 | 3.2 | 9.7 | 0.00 | 0.00 | 0.00 | 78 | 1013.3 |
| 20260905154431 | 28 | 1 | 1.6 | 3.2 | 0.00 | 0.00 | 0.00 | 76 | 1013.3 |
| 20260905153926 | 28 | 301 | 1.6 | 3.2 | 0.00 | 0.00 | 0.00 | 78 | 1013.3 |
| 20260905153423 | 28 | 26 | 1.6 | 6.4 | 0.00 | 0.00 | 0.00 | 78 | 1013.7 |
| 20260905152922 | 28 | 300 | 1.6 | 6.4 | 0.00 | 0.00 | 0.00 | 78 | 1013.5 |
| 20260905152422 | 28 | 283 | 0.0 | 1.6 | 0.00 | 0.00 | 0.00 | 78 | 1013.7 |
| 20260905151917 | 28 | 321 | 1.6 | 3.2 | 0.00 | 0.00 | 0.00 | 77 | 1013.6 |
| 20260905151412 | 28 | 38 | 1.6 | 9.7 | 0.00 | 0.00 | 0.00 | 78 | 1013.5 |
| 20260905150907 | 28 | 286 | 3.2 | 11.3 | 0.00 | 0.00 | 0.00 | 76 | 1013.7 |
| 20260905150407 | 29 | 266 | 0.0 | 4.8 | 0.00 | 0.00 | 0.00 | 78 | 1013.5 |
| 20260905145904 | 28 | 184 | 0.0 | 1.6 | 0.00 | 0.00 | 0.00 | 79 | 1013.6 |
| 20260905145358 | 28 | 343 | 1.6 | 11.3 | 0.00 | 0.00 | 0.00 | 78 | 1013.5 |
| 20260905144858 | 28 | 160 | 1.6 | 11.3 | 0.00 | 0.00 | 0.00 | 77 | 1013.6 |
| 20260905144353 | 28 | 81 | 0.0 | 4.8 | 0.00 | 0.00 | 0.00 | 79 | 1013.5 |
| 20260905143852 | 28 | 300 | 3.2 | 12.9 | 0.00 | 0.00 | 0.00 | 78 | 1013.6 |
| 20260905143346 | 28 | 180 | 3.2 | 6.4 | 0.00 | 0.00 | 0.00 | 79 | 1013.5 |
| 20260905142846 | 27 | 1 | 4.8 | 6.4 | 0.00 | 0.00 | 0.00 | 79 | 1013.7 |
| 20260905142344 | 27 | 20 | 1.6 | 3.2 | 0.00 | 0.00 | 0.00 | 80 | 1013.8 |
| 20260905141841 | 27 | 241 | 1.6 | 9.7 | 0.00 | 0.00 | 0.00 | 81 | 1013.8 |
| 20260905141336 | 27 | 7 | 8.0 | 9.7 | 0.00 | 0.00 | 0.00 | 81 | 1013.5 |
| 20260905140832 | 27 | 78 | 3.2 | 4.8 | 0.00 | 0.00 | 0.00 | 82 | 1013.5 |
| 20260905140332 | 26 | 276 | 3.2 | 6.4 | 0.00 | 0.00 | 0.00 | 83 | 1013.3 |
| 20260905135830 | 27 | 85 | 3.2 | 4.8 | 0.00 | 0.00 | 0.00 | 82 | 1013.2 |
| 20260905135326 | 27 | 268 | 1.6 | 1.6 | 0.00 | 0.00 | 0.00 | 84 | 1013.5 |
| 20260905134821 | 26 | 335 | 0.0 | 1.6 | 0.00 | 0.00 | 0.00 | 86 | 1013.3 |
| 20260905134314 | 26 | 259 | 0.0 | 1.6 | 0.00 | 0.00 | 0.00 | 87 | 1013.3 |
| 20260905133809 | 25 | 325 | 3.2 | 11.3 | 0.00 | 0.00 | 0.00 | 88 | 1013.3 |
| 20260905133305 | 24 | 37 | 1.6 | 4.8 | 0.00 | 0.00 | 0.00 | 99 | 1013.2 |
| 20260905132803 | 24 | 294 | 0.0 | 1.6 | 0.00 | 0.00 | 0.00 | 99 | 1013.1 |
| 20260905132259 | 23 | 130 | 0.0 | 3.2 | 0.00 | 0.00 | 0.00 | 99 | 1013.3 |
| 20260905131754 | 23 | 359 | 3.2 | 3.2 | 0.00 | 0.00 | 0.00 | 99 | 1013.4 |
| 20260905131249 | 22 | 281 | 0.0 | 3.2 | 0.00 | 0.00 | 0.00 | 99 | 1013.0 |
| 20260905130744 | 23 | 5 | 1.6 | 3.2 | 0.00 | 0.00 | 0.00 | 99 | 1012.9 |
| 20260905130243 | 22 | 328 | 0.0 | 3.2 | 0.00 | 0.00 | 0.00 | 99 | 1012.9 |